Find Starlink 31463

NORAD ID: 59296 Int'l Des: 2024-056 Owner: SPXS Country: US Constellation: starlink operational
LEOCIRCULAR

当前视图

正在加载3D地球...

About Starlink 31463

Starlink 31463 (NORAD 59296) is a starlink constellation satellite (v2 mini) launched Mar 24, 2024 by SPXS of US. It operates in LEO, CIRCULAR orbit with a mass of 730.00 kg.

即将过境

Passes for default location (London). Set your location on the main map for personalized predictions.

高度历史

Loading altitude history...

两行轨道根数

1 59296U 24056A 26264.21874737 .00000516 00000-0 28264-4 0 9995
2 59296 43.0055 202.5191 0000910 272.0998 87.9749 15.27576955141100
Epoch: Sep 21, 2026 • Age: 10 hours

当前状态

高度 486.1 km
远地点 / 近地点 N/A
速度 7.63 km/s
星下点 40.25°N, 39.61°E
发射日期 Mar 24, 2024
运行时间 2.4 years
类型 internet

技术详情

分类 Payload
质量 730.00 kg
干质量 700.00 kg
长度 0.30 m
跨度 29.00 m
形状 ? Box + pan
制造商 SPXS
平台类型 Starlink V2M
阶段状态 In Orbit
所有者/国家 SPXS/US

Most Searched